| time (UTC) | temp F | wind direction | speed knots | gust knots | rain 1hr in | rain 24hr in | rain mn in | humidity % | barometer mb |
| 20260507223341 | 53 | 157 | 0.0 | 0.0 | 0.00 | 0.03 | 0.00 | 88 | 1013.8 |
| 20260507221834 | 53 | 157 | 0.0 | 1.7 | 0.00 | 0.03 | 0.00 | 87 | 1013.7 |
| 20260507220334 | 53 | 157 | 0.0 | 0.9 | 0.00 | 0.03 | 0.00 | 86 | 1013.6 |
| 20260507214830 | 54 | 157 | 0.9 | 1.7 | 0.00 | 0.03 | 0.03 | 86 | 1013.6 |
| 20260507213346 | 54 | 157 | 0.0 | 1.7 | 0.00 | 0.03 | 0.03 | 86 | 1013.4 |
| 20260507211843 | 55 | 157 | 0.0 | 0.9 | 0.00 | 0.03 | 0.03 | 85 | 1013.3 |
| 20260507210338 | 55 | 157 | 0.9 | 2.6 | 0.00 | 0.03 | 0.03 | 85 | 1013.4 |
| 20260507204846 | 56 | 211 | 0.0 | 1.7 | 0.00 | 0.03 | 0.03 | 84 | 1013.3 |
| 20260507203336 | 57 | 211 | 0.9 | 2.6 | 0.00 | 0.03 | 0.03 | 82 | 1013.1 |
| 20260507201847 | 57 | 211 | 0.0 | 0.0 | 0.00 | 0.03 | 0.03 | 80 | 1013.1 |
| 20260507200341 | 58 | 211 | 0.0 | 0.0 | 0.00 | 0.03 | 0.03 | 80 | 1012.8 |
| 20260507194837 | 59 | 211 | 0.0 | 0.9 | 0.00 | 0.03 | 0.03 | 78 | 1012.6 |
| 20260507193330 | 60 | 211 | 0.0 | 0.0 | 0.00 | 0.03 | 0.03 | 75 | 1012.4 |
| 20260507191843 | 61 | 211 | 0.0 | 0.0 | 0.00 | 0.03 | 0.03 | 73 | 1012.1 |
| 20260507190339 | 61 | 211 | 0.0 | 0.0 | 0.00 | 0.03 | 0.03 | 69 | 1011.9 |
| 20260507184829 | 62 | 211 | 0.0 | 0.0 | 0.00 | 0.03 | 0.03 | 66 | 1011.9 |
| 20260507183338 | 64 | 211 | 0.0 | 0.0 | 0.00 | 0.36 | 0.03 | 64 | 1011.7 |
| 20260507181829 | 65 | 211 | 0.0 | 0.9 | 0.00 | 0.36 | 0.03 | 62 | 1011.7 |
| 20260507180343 | 66 | 198 | 0.0 | 1.7 | 0.00 | 0.36 | 0.03 | 59 | 1011.5 |
| 20260507174844 | 67 | 240 | 2.6 | 3.5 | 0.00 | 0.36 | 0.03 | 56 | 1011.3 |
| 20260507173338 | 67 | 238 | 3.5 | 6.1 | 0.00 | 0.36 | 0.03 | 54 | 1011.2 |
| 20260507171834 | 68 | 252 | 1.7 | 6.1 | 0.00 | 0.36 | 0.03 | 53 | 1011.1 |
| 20260507170329 | 68 | 240 | 3.5 | 6.1 | 0.00 | 0.36 | 0.03 | 54 | 1011.1 |
| 20260507164842 | 68 | 235 | 0.0 | 6.1 | 0.00 | 0.36 | 0.03 | 52 | 1010.9 |
| 20260507163332 | 69 | 233 | 1.7 | 4.3 | 0.00 | 0.36 | 0.03 | 50 | 1011.0 |
| 20260507161848 | 70 | 215 | 2.6 | 3.5 | 0.00 | 0.36 | 0.03 | 51 | 1010.8 |
| 20260507160336 | 70 | 325 | 3.5 | 4.3 | 0.00 | 0.36 | 0.03 | 49 | 1010.9 |
| 20260507154837 | 70 | 189 | 1.7 | 6.1 | 0.00 | 0.36 | 0.03 | 50 | 1010.9 |
| 20260507153524 | 70 | 247 | 4.3 | 7.8 | 0.00 | 0.36 | 0.03 | 52 | 1010.9 |
| 20260507153330 | 70 | 247 | 4.3 | 7.8 | 0.00 | 0.36 | 0.03 | 52 | 1010.9 |
| 20260507152628 | 69 | 244 | 0.9 | 3.5 | 0.00 | 0.36 | 0.03 | 54 | 1010.9 |
| 20260507151844 | 69 | 244 | 0.9 | 3.5 | 0.00 | 0.36 | 0.03 | 54 | 1010.9 |
| 20260507150340 | 70 | 250 | 3.5 | 5.2 | 0.00 | 0.36 | 0.03 | 48 | 1011.1 |
| 20260507144836 | 69 | 252 | 0.0 | 4.3 | 0.00 | 0.36 | 0.03 | 53 | 1011.1 |
| 20260507143334 | 69 | 248 | 0.9 | 5.2 | 0.00 | 0.95 | 0.03 | 52 | 1011.1 |
| 20260507141827 | 69 | 200 | 4.3 | 6.1 | 0.00 | 0.95 | 0.03 | 53 | 1011.2 |
| 20260507140342 | 69 | 245 | 2.6 | 6.1 | 0.00 | 0.95 | 0.03 | 53 | 1011.3 |
| 20260507134834 | 69 | 325 | 5.2 | 8.7 | 0.00 | 0.95 | 0.03 | 54 | 1011.4 |
| 20260507133334 | 69 | 242 | 3.5 | 8.7 | 0.00 | 1.37 | 0.03 | 58 | 1011.5 |
| 20260507131844 | 67 | 320 | 0.0 | 5.2 | 0.00 | 1.37 | 0.03 | 57 | 1011.6 |
| 20260507130342 | 69 | 319 | 1.7 | 7.8 | 0.00 | 1.37 | 0.03 | 55 | 1011.8 |
| 20260507124839 | 68 | 265 | 3.5 | 7.8 | 0.00 | 1.37 | 0.03 | 58 | 1011.8 |
| 20260507123330 | 67 | 5 | 4.3 | 6.1 | 0.00 | 1.38 | 0.03 | 60 | 1012.0 |
| 20260507121842 | 67 | 300 | 3.5 | 7.0 | 0.00 | 1.38 | 0.03 | 61 | 1012.0 |
| 20260507120341 | 67 | 290 | 2.6 | 6.1 | 0.00 | 1.38 | 0.03 | 60 | 1011.9 |
| 20260507114839 | 66 | 232 | 0.9 | 5.2 | 0.00 | 1.38 | 0.03 | 62 | 1012.1 |
| 20260507113332 | 67 | 197 | 1.7 | 6.1 | 0.00 | 1.39 | 0.03 | 62 | 1012.2 |
| 20260507111845 | 65 | 251 | 1.7 | 9.6 | 0.00 | 1.39 | 0.03 | 60 | 1012.4 |
| 20260507110341 | 65 | 240 | 5.2 | 8.7 | 0.00 | 1.39 | 0.03 | 69 | 1012.5 |
| 20260507104839 | 64 | 222 | 3.5 | 5.2 | 0.00 | 1.39 | 0.03 | 69 | 1012.7 |
| 20260507103331 | 64 | 231 | 2.6 | 6.1 | 0.00 | 1.39 | 0.03 | 67 | 1012.8 |
| 20260507101848 | 64 | 218 | 4.3 | 7.8 | 0.00 | 1.39 | 0.03 | 70 | 1012.8 |
| 20260507100338 | 62 | 311 | 0.0 | 2.6 | 0.00 | 1.39 | 0.03 | 74 | 1013.0 |
| 20260507094829 | 62 | 257 | 0.0 | 3.5 | 0.00 | 1.39 | 0.03 | 72 | 1013.0 |
| 20260507093344 | 62 | 261 | 1.7 | 5.2 | 0.00 | 1.39 | 0.03 | 73 | 1013.0 |
| 20260507091838 | 61 | 194 | 0.0 | 7.8 | 0.00 | 1.39 | 0.03 | 73 | 1012.9 |
| 20260507090336 | 60 | 294 | 0.9 | 2.6 | 0.00 | 1.39 | 0.03 | 76 | 1012.9 |
| 20260507084832 | 59 | 119 | 1.7 | 3.5 | 0.00 | 1.39 | 0.03 | 77 | 1012.9 |
| 20260507083329 | 59 | 218 | 0.0 | 2.6 | 0.00 | 1.46 | 0.03 | 82 | 1012.8 |
| 20260507081842 | 59 | 217 | 0.0 | 2.6 | 0.00 | 1.46 | 0.03 | 81 | 1012.8 |
| 20260507080337 | 59 | 316 | 0.0 | 4.3 | 0.00 | 1.46 | 0.03 | 82 | 1012.7 |
| 20260507074831 | 58 | 56 | 0.0 | 0.0 | 0.00 | 1.46 | 0.03 | 83 | 1012.6 |
| 20260507073340 | 57 | 56 | 0.0 | 2.6 | 0.00 | 1.52 | 0.03 | 83 | 1012.5 |
| 20260507071836 | 56 | 71 | 0.9 | 2.6 | 0.00 | 1.52 | 0.03 | 83 | 1012.5 |
| 20260507070327 | 56 | 93 | 3.5 | 6.1 | 0.00 | 1.52 | 0.03 | 83 | 1012.5 |
| 20260507064835 | 56 | 61 | 1.7 | 6.1 | 0.00 | 1.52 | 0.03 | 84 | 1012.2 |
| 20260507063336 | 55 | 92 | 2.6 | 5.2 | 0.00 | 1.52 | 0.03 | 88 | 1012.2 |
| 20260507061829 | 54 | 50 | 2.6 | 5.2 | 0.00 | 1.52 | 0.03 | 89 | 1012.0 |
| 20260507060342 | 53 | 34 | 2.6 | 4.3 | 0.00 | 1.52 | 0.03 | 89 | 1012.0 |
| 20260507054835 | 53 | 35 | 1.7 | 6.1 | 0.00 | 1.52 | 0.03 | 89 | 1011.9 |
| 20260507053327 | 52 | 34 | 2.6 | 4.3 | 0.00 | 1.54 | 0.03 | 90 | 1011.8 |
| 20260507051843 | 52 | 76 | 0.9 | 3.5 | 0.00 | 1.54 | 0.03 | 90 | 1011.6 |
| 20260507050342 | 52 | 74 | 0.9 | 2.6 | 0.01 | 1.54 | 0.03 | 90 | 1011.4 |
| 20260507044836 | 51 | 78 | 0.9 | 7.8 | 0.01 | 1.54 | 0.03 | 90 | 1011.2 |
| 20260507043336 | 51 | 78 | 3.5 | 5.2 | 0.01 | 1.56 | 0.03 | 90 | 1011.0 |
| 20260507041832 | 51 | 77 | 1.7 | 3.5 | 0.02 | 1.56 | 0.03 | 90 | 1011.0 |
| 20260507040326 | 51 | 84 | 2.6 | 4.3 | 0.03 | 1.56 | 0.03 | 89 | 1011.0 |
| 20260507034843 | 52 | 72 | 2.6 | 6.1 | 0.02 | 1.55 | 0.02 | 89 | 1010.8 |
| 20260507033336 | 52 | 84 | 4.3 | 10.4 | 0.02 | 1.57 | 0.02 | 89 | 1010.8 |
| 20260507031829 | 52 | 65 | 2.6 | 6.1 | 0.01 | 1.56 | 0.01 | 88 | 1010.9 |
| 20260507030341 | 52 | 73 | 2.6 | 9.6 | 0.00 | 1.55 | 0.00 | 88 | 1010.9 |
| 20260507024833 | 52 | 44 | 6.1 | 10.4 | 0.00 | 1.55 | 0.00 | 88 | 1010.7 |
| 20260507023324 | 52 | 60 | 4.3 | 10.4 | 0.00 | 1.58 | 0.00 | 88 | 1010.7 |
| 20260507021842 | 52 | 82 | 5.2 | 13.0 | 0.00 | 1.58 | 0.00 | 89 | 1010.7 |
| 20260507020333 | 52 | 77 | 4.3 | 9.6 | 0.00 | 1.58 | 0.00 | 90 | 1010.8 |
| 20260507014827 | 52 | 70 | 4.3 | 9.6 | 0.00 | 1.58 | 0.00 | 91 | 1010.7 |
| 20260507013345 | 52 | 53 | 1.7 | 4.3 | 0.00 | 1.69 | 0.00 | 90 | 1010.8 |
| 20260507011837 | 52 | 80 | 1.7 | 2.6 | 0.00 | 1.69 | 0.00 | 90 | 1010.7 |
| 20260507010331 | 52 | 54 | 0.9 | 3.5 | 0.00 | 1.69 | 0.00 | 90 | 1010.7 |
| 20260507004829 | 52 | 46 | 1.7 | 4.3 | 0.00 | 1.69 | 0.00 | 89 | 1010.6 |
| 20260507003342 | 53 | 9 | 0.9 | 3.5 | 0.00 | 1.69 | 0.00 | 89 | 1010.5 |
| 20260507001839 | 53 | 350 | 2.6 | 9.6 | 0.00 | 1.69 | 0.00 | 88 | 1010.5 |
| 20260507000336 | 53 | 94 | 1.7 | 9.6 | 0.00 | 1.69 | 0.00 | 89 | 1010.3 |
| 20260506234829 | 53 | 41 | 6.1 | 11.3 | 0.00 | 1.69 | 0.00 | 89 | 1010.3 |
| 20260506233324 | 53 | 51 | 4.3 | 9.6 | 0.00 | 1.69 | 0.00 | 90 | 1010.4 |
| 20260506231842 | 53 | 26 | 3.5 | 11.3 | 0.00 | 1.69 | 0.00 | 90 | 1010.5 |
| 20260506230345 | 53 | 67 | 4.3 | 9.6 | 0.00 | 1.69 | 0.00 | 90 | 1010.4 |
| 20260506224838 | 53 | 85 | 3.5 | 7.8 | 0.00 | 1.69 | 0.00 | 90 | 1010.3 |